Regional Weather Roundup
Issued by NWS Newport/Morehead, NC

Current Version | Previous Version | Graphics & Text | Print | Product List | Glossary On
Versions: 1 2 3 4 5 6 7 8 9 10 11 12 13 14 15 16 17 18 19 20 21 22 23 24 25 26 27 28 29 30 31 32 33 34 35 36 37 38 39 40 41 42 43 44 45 46 47 48 49 50
000 ASUS42 KMHX 101112 RWRMHX WEATHER ROUNDUP FOR EASTERN NORTH CAROLINA NATIONAL WEATHER SERVICE NEWPORT/MOREHEAD CITY NC 600 AM EST SAT DEC 10 2016 NOTE: "FAIR" INDICATES FEW OR NO CLOUDS BELOW 12,000 FEET WITH NO SIGNIFICANT WEATHER AND/OR OBSTRUCTIONS TO VISIBILITY NCZ015>017-031-032-045>047-102-103-101200- NORTH COAST CITY SKY/WX TMP DP RH WIND PRES REMARKS EDENTON NOT AVBL ELIZABETH CITY CLEAR 24 18 77 W6 30.51R KITTY HAWK SUNNY 32 26 78 NW3 30.47R MANTEO CLEAR 33 23 67 N8 30.49S $$ NCZ045>047-081-094-103-104-101200- CENTRAL COAST CITY SKY/WX TMP DP RH WIND PRES REMARKS FRISCO CLEAR 37 21 52 VRB5 30.48R $$ NCZ095-097-098-100-101-101200- SOUTHERN COAST CITY SKY/WX TMP DP RH WIND PRES REMARKS BEAUFORT CLEAR 31 23 72 N8 30.51R CEDAR ISLAND NOT AVBL JACKSONVILLE CLEAR 27 18 69 N3 30.52R PINEY ISLAND SUNNY N/A N/A N/A N6 30.50R WILMINGTON CLEAR 26 19 74 N6 30.52R $$ NCZ011>013-027>030-043-044-078>080-089-090>093-098-101200- COASTAL PLAIN CITY SKY/WX TMP DP RH WIND PRES REMARKS AHOSKIE N/A 22 16 79 CALM 30.52S CLINTON CLEAR 27 19 73 CALM 30.53S ELIZABETHTOWN PTCLDY 26 19 75 CALM 30.52S GOLDSBORO CLEAR 26 17 69 CALM 30.51R GREENVILLE CLEAR 25 19 80 CALM 30.52R HAVELOCK CLEAR 30 21 69 N7 30.52R KENANSVILLE CLEAR 23 18 80 NW3 30.52S KINSTON CLEAR 22 19 87 CALM 30.53R NEW BERN CLEAR 27 18 69 N7 30.53R RICHLANDS CLEAR 21 17 84 CALM 30.52R ROCKY MOUNT CLEAR 21 18 88 CALM 30.52R WASHINGTON CLEAR 24 18 75 CALM 30.52S WHITEVILLE CLEAR 29 17 61 N3 30.52S $$ AMZ130-135-150-152-154-156-158-170-250-252-270-ANZ085-086-088-633-658-670-101200- MARINE OBSERVATIONS STATION/POSITION TIME TEMP WIND PRES WAVE SWELL AIR SEA DIR/SP/G HT/PER HT/PER (UTC) (F) (DEG/KT/KT) (MB) (FT/S) (FT/S) CHESAPEAKE LIGHT NOT AVBL 64 E VA BEACH 1050 40 58 320/ 16/ 21 1030.8 5/ 6 2/11 DUCK 1042 33 52 320/ 14/ 16 1031.7 2 E DUCK NOT AVBL OREGON INLET 1042 35 49 320/ 10/ 13 1032.1 13E OREGON INLT NOT AVBL HATTERAS CG 1042 39 51 350/ 17/ 20 1031.6 DIAMOND BUOY 1050 42 78 350/ 14/ 19 1031.7 5/ 9 3/ 9 CAPE LOOKOUT 1100 34 350/ 11/ 14 1032.5 BEAUFORT LAB 1042 33 51 340/ 8/ 12 1031.9 30 SE NEW RVR IN 1008 42 69 360/ 14/ 17 1032.0 30 SE NEW RVR IN 1043 69 N/A 3/ 4 27 SE WRIGHTSVLE 1008 42 69 10/ 14/ 25 1031.5 5 SE WRIGHTSVLE 1008 35 60 10/ 17/ 31 1032.2 225 S CAPE HAT 1050 58 73 360/ 6/ 10 1028.1 5/ 7 5/ 7 41 SE CHARLESTON 1050 49 73 30/ 16/ 19 1031.0 4/ 6 2/ 8 $$

USA.gov is the U.S. government's official web portal to all federal, state and local government web resources and services.